Change the Weather History Date:

Tuesday, April 8, 2014

  Actual Average Record
Temperature  
Mean Temperature 56 °F -  
Max Temperature 66 °F 45 °F 66 °F (2014)
Min Temperature 46 °F 31 °F 24 °F (1999)
Degree Days  
Heating Degree Days 9    
Growing Degree Days 6 (Base 50)    
Moisture  
Dew Point 43 °F    
Average Humidity 68    
Maximum Humidity 93    
Minimum Humidity 32    
Precipitation  
Precipitation 0.00 in - - ()
Sea Level Pressure  
Sea Level Pressure 30.09 in    
Wind  
Wind Speed 6 mph (NE)    
Max Wind Speed 13 mph    
Max Gust Speed -    
Visibility 10 miles    
Events      
Averages and records for this station are not official NWS values.
T = Trace of Precipitation, MM = Missing Value Source: NWS Daily Summary

Daily Weather History Graph

Daily Weather History Graph

Search for Another Location

Airport or City:

Trip Planner

Search our weather history database for the weather conditions in past years. The results will help you decide how hot, cold, wet, or windy it might be!

Date:

Astronomy

Apr. 08, 2014 Rise Set
Actual Time 6:43 AM PDT 7:47 PM PDT
Civil Twilight 6:14 AM PDT 8:16 PM PDT
Nautical Twilight 5:40 AM PDT 8:51 PM PDT
Astronomical Twilight 5:04 AM PDT 9:27 PM PDT
Moon 1:38 PM PDT (4/8) 3:07 AM PDT (4/8)
Length of Visible Light 14h 01m
Length of Day
13h 04m
Waxing Gibbous, 63% of the Moon is Illuminated
Apr 8
Waxing Gibbous
Apr 15
Full
Apr 22
Last Quarter
Apr 28
New
May 6
First Quarter

Hourly Weather History & Observations

Time (PDT) Temp. Windchill Dew Point Humidity Pressure Visibility Wind Dir Wind Speed Gust Speed Precip Events Conditions
12:56 AM 48.9 °F - 46.9 °F 93% 30.14 in 10.0 mi North 8.1 mph - N/A   Clear
1:56 AM 48.9 °F - 46.0 °F 90% 30.12 in 10.0 mi North 6.9 mph - N/A   Clear
2:56 AM 50.0 °F - 45.0 °F 83% 30.11 in 10.0 mi North 5.8 mph - N/A   Clear
3:56 AM 51.1 °F - 45.0 °F 80% 30.09 in 10.0 mi SSE 3.5 mph - N/A   Clear
4:56 AM 50.0 °F - 45.0 °F 83% 30.09 in 10.0 mi Calm Calm - N/A   Clear
5:56 AM 48.9 °F - 46.0 °F 90% 30.10 in 10.0 mi ESE 5.8 mph - N/A   Clear
6:56 AM 48.0 °F - 45.0 °F 89% 30.10 in 10.0 mi SE 6.9 mph - N/A   Clear
7:56 AM 48.9 °F - 44.1 °F 83% 30.12 in 10.0 mi ESE 8.1 mph - N/A   Clear
8:56 AM 52.0 °F - 45.0 °F 77% 30.11 in 10.0 mi ESE 6.9 mph - N/A   Clear
9:56 AM 55.9 °F - 44.1 °F 64% 30.10 in 10.0 mi SE 6.9 mph - N/A   Clear
10:56 AM 57.9 °F - 44.1 °F 60% 30.12 in 10.0 mi SE 8.1 mph - N/A   Clear
11:56 AM 60.1 °F - 46.0 °F 60% 30.12 in 10.0 mi ESE 4.6 mph - N/A   Clear
12:56 PM 64.0 °F - 46.0 °F 52% 30.10 in 10.0 mi Calm Calm - N/A   Clear
1:56 PM 63.0 °F - 43.0 °F 48% 30.10 in 10.0 mi Calm Calm - N/A   Clear
2:56 PM 64.0 °F - 39.0 °F 40% 30.08 in 10.0 mi Variable 5.8 mph - N/A   Clear
3:56 PM 64.9 °F - 34.0 °F 32% 30.06 in 10.0 mi Variable 3.5 mph - N/A   Clear
4:56 PM 64.9 °F - 34.0 °F 32% 30.06 in 10.0 mi Variable 4.6 mph - N/A   Clear
5:56 PM 61.0 °F - 35.1 °F 38% 30.06 in 10.0 mi Calm Calm - N/A   Clear
6:56 PM 57.0 °F - 42.1 °F 57% 30.07 in 10.0 mi NNW 5.8 mph - N/A   Clear
7:56 PM 53.1 °F - 41.0 °F 64% 30.06 in 10.0 mi NNW 10.4 mph - N/A   Clear
8:56 PM 51.1 °F - 41.0 °F 68% 30.08 in 10.0 mi NNW 11.5 mph - N/A   Clear
9:56 PM 48.9 °F - 42.1 °F 77% 30.08 in 10.0 mi NNW 9.2 mph - N/A   Clear
10:56 PM 48.0 °F - 41.0 °F 77% 30.08 in 10.0 mi NNW 11.5 mph - N/A   Clear
11:56 PM 46.0 °F 40.2 °F 41.0 °F 83% 30.09 in 10.0 mi NNW 12.7 mph - N/A   Clear